{"data":{"norad_id":51628,"intl_designator":"2022-012G","name":"ONEWEB-0425","alt_names":[],"object_type":"PAYLOAD","status":"ACTIVE","operator":null,"country":"UK","launch_date":"2022-02-10","launch_site_code":"FRGUI","launch_vehicle":null,"mission":null,"orbit_class":"UNKNOWN","rcs_meters":null,"size_class":null,"mass_kg":null,"dimensions":null,"purposes":["comms"],"wikipedia_slug":null,"has_3d_model":false,"image_url":null,"decayed_at":null,"tle_current":{"epoch":"2026-05-25T02:58:34.760352Z","epoch_age_seconds":57640,"freshness":"FRESH","line1":"1 51628U 22012G   26145.12401343 -.00000594  00000+0 -17393-2 0  9999","line2":"2 51628  87.8854  40.8582 0002135  83.6669 276.4702 13.10373653206301","mean_motion":13.10373653,"eccentricity":0.0002135,"inclination_deg":87.8854,"raan_deg":40.8582,"arg_perigee_deg":83.6669,"mean_anomaly_deg":276.4702,"bstar":-0.0017393,"rev_number":20630,"period_min":109.89231939327,"perigee_km":1220.0913502058,"apogee_km":1223.3364865479,"semimajor_km":7599.8509183769,"source":"CELESTRAK","updated_at":"2026-05-25T13:38:22.577089Z"}}}